Flag Weather past 2 weeks in Columbia, South Carolina, U.S.A.

Now
49 °F

Clear.


Feels Like: 49 °F
Forecast: 33 / 55 °F
Wind: No wind

Location: Columbia Owens Downtown Airport

Current Time: Nov 20, 2014 at 9:55:50 PM

Latest Report: Nov 20, 2014 at 8:53 PM


Visibility: 10 mi

Pressure: 30.19 "Hg

Humidity: 57%

Dew point: 34 °F

Location of ColumbiaLocation

Historic Weather in Columbia — Graph

°F

Columbia temperature yesterday

Maximum temperature yesterday: 50 °F (at 3:53 PM)
Minimum temperature yesterday: 23 °F (at 6:53 AM)
Average temperature yesterday: 34 °F

Past Weeks' High & Low Weather Summary

 TemperatureHumidityPressure
High78 °F (Nov 6, 12:53 PM)97% (Nov 17, 5:53 AM)30.48 "Hg (Nov 17, 5:53 AM)
Low23 °F (Nov 19, 6:53 AM)20% (Nov 19, 3:53 PM)29.67 "Hg (Nov 17, 2:53 PM)
Average50 °F65%30.10 "Hg
* Reported Nov 5 8:53 PM — Nov 20 8:53 PM, Columbia, Weather by CustomWeather, © 2014

Note: Actual official high and low records may vary slightly from our data, if they occured in-between our weather recording intervals... More about our weather records

Advertising

Columbia weather history for previous 24 hours

 ConditionsComfort  
Time TempWeatherWind HumidityBarometerVisibility
8:53 PM
Nov 20
49 °FClear.No wind57%30.19 "Hg10 mi
7:53 PM52 °FClear.3 mph49%30.17 "Hg10 mi
6:53 PM54 °FClear.No wind43%30.16 "Hg10 mi
5:53 PM56 °FClear.3 mph40%30.14 "Hg10 mi
4:53 PM59 °FSunny.9 mph36%30.12 "Hg10 mi
3:53 PM61 °FSunny.14 mph32%30.12 "Hg10 mi
2:53 PM62 °FSunny.12 mph32%30.12 "Hg10 mi
1:53 PM62 °FSunny.14 mph34%30.13 "Hg10 mi
12:53 PM61 °FSunny.16 mph35%30.16 "Hg10 mi
11:53 AM59 °FSunny.12 mph32%30.20 "Hg10 mi
10:53 AM54 °FSunny.9 mph31%30.23 "Hg10 mi
9:53 AM47 °FSunny.7 mph39%30.24 "Hg10 mi
8:53 AM39 °FSunny.6 mph50%30.26 "Hg10 mi
7:53 AM34 °FSunny.3 mph56%30.26 "Hg10 mi
6:53 AM33 °FClear.3 mph58%30.25 "Hg10 mi
5:53 AM29 °FClear.No wind75%30.24 "Hg10 mi
4:53 AM29 °FClear.No wind72%30.24 "Hg10 mi
3:53 AM29 °FClear.No wind79%30.25 "Hg10 mi
2:53 AM29 °FClear.No wind79%30.27 "Hg9 mi
1:53 AM29 °FClear.No wind79%30.29 "Hg7 mi
12:53 AM29 °FClear.No wind79%30.30 "Hg8 mi
11:53 PM
Nov 19
30 °FClear.No wind75%30.30 "Hg10 mi
10:53 PM31 °FClear.No wind69%30.30 "Hg10 mi
9:53 PM31 °FClear.No wind69%30.31 "Hg10 mi
Weather by CustomWeather, © 2014

See weather overviewHow to use our weather pages